When you browse on this site, cookies collect data to enhance your experience and personalize the content and advertising you see.
Visit our Privacy Policy to learn more. By continuing to use the site, you agree to this use of cookies and data.
  • In Romania
  • List of Countries
  • For 7 days
  • Water Temperature
  • Satellite Maps
  • Weather Map
  • Weather Widgets
  • user-avatar
    Login

    Hourly Weather Viedma

    Today, 24 March, Sunday

    Time Temperature Precipitation Wind Pressure Humidity
    00:00 +14°C° 0.1 mm 10 mps 758 mmHg 66%
    01:00 +14°C° 0.1 mm 10 mps 759 mmHg 66%
    02:00 +14°C° 0.1 mm 10 mps 759 mmHg 66%
    03:00 +14°C° 0 mm 10 mps 760 mmHg 67%
    04:00 +15°C° 0 mm 9 mps 760 mmHg 67%
    05:00 +15°C° 0 mm 9 mps 761 mmHg 67%
    06:00 +15°C° 0 mm 9 mps 761 mmHg 66%
    07:00 +15°C° 0 mm 9 mps 762 mmHg 64%
    08:00 +15°C° 0 mm 9 mps 762 mmHg 63%
    09:00 +16°C° 0 mm 8 mps 763 mmHg 60%
    10:00 +16°C° 0 mm 8 mps 763 mmHg 58%
    11:00 +17°C° 0 mm 8 mps 763 mmHg 55%
    12:00 +17°C° 0 mm 7 mps 763 mmHg 54%
    13:00 +17°C° 0 mm 7 mps 763 mmHg 54%
    14:00 +17°C° 0 mm 7 mps 763 mmHg 53%
    15:00 +16°C° 0 mm 6 mps 763 mmHg 55%
    16:00 +15°C° 0 mm 6 mps 763 mmHg 56%
    17:00 +15°C° 0 mm 5 mps 763 mmHg 58%
    18:00 +14°C° 0 mm 5 mps 764 mmHg 60%
    19:00 +13°C° 0 mm 4 mps 764 mmHg 61%
    20:00 +13°C° 0 mm 4 mps 764 mmHg 63%
    21:00 +13°C° 0 mm 3 mps 764 mmHg 65%
    22:00 +12°C° 0 mm 3 mps 764 mmHg 67%
    23:00 +13°C° 0 mm 2 mps 764 mmHg 69%

    Tomorrow, 25 March, Monday

    Time Temperature Precipitation Wind Pressure Humidity
    00:00 +12°C° 0 mm 2 mps 764 mmHg 71%
    01:00 +12°C° 0 mm 2 mps 764 mmHg 72%
    02:00 +12°C° 0 mm 2 mps 764 mmHg 74%
    03:00 +11°C° 0 mm 1 mps 764 mmHg 76%
    04:00 +11°C° 0 mm 1 mps 764 mmHg 77%
    05:00 +10°C° 0 mm 0 mps 764 mmHg 79%
    06:00 +11°C° 0 mm 0 mps 765 mmHg 74%
    07:00 +13°C° 0 mm 1 mps 765 mmHg 70%
    08:00 +13°C° 0 mm 1 mps 765 mmHg 65%
    09:00 +15°C° 0 mm 1 mps 766 mmHg 59%
    10:00 +16°C° 0 mm 2 mps 766 mmHg 53%
    11:00 +17°C° 0 mm 2 mps 766 mmHg 46%
    12:00 +18°C° 0 mm 3 mps 766 mmHg 44%
    13:00 +19°C° 0 mm 3 mps 766 mmHg 41%
    14:00 +19°C° 0 mm 3 mps 766 mmHg 38%
    15:00 +19°C° 0 mm 4 mps 765 mmHg 41%
    16:00 +17°C° 0 mm 5 mps 765 mmHg 44%
    17:00 +17°C° 0 mm 5 mps 765 mmHg 47%
    18:00 +16°C° 0 mm 5 mps 766 mmHg 52%
    19:00 +14°C° 0 mm 5 mps 766 mmHg 58%
    20:00 +13°C° 0 mm 5 mps 766 mmHg 63%
    21:00 +13°C° 0 mm 4 mps 767 mmHg 64%
    22:00 +13°C° 0 mm 4 mps 767 mmHg 66%
    23:00 +12°C° 0 mm 3 mps 767 mmHg 67%

    Day after tomorrow, 26 March, Tuesday

    Time Temperature Precipitation Wind Pressure Humidity
    00:00 +12°C° 0 mm 3 mps 768 mmHg 68%
    01:00 +13°C° 0 mm 2 mps 768 mmHg 69%
    02:00 +12°C° 0 mm 2 mps 768 mmHg 70%
    03:00 +12°C° 0 mm 2 mps 768 mmHg 71%
    04:00 +12°C° 0 mm 2 mps 768 mmHg 72%
    05:00 +12°C° 0 mm 2 mps 768 mmHg 73%
    06:00 +13°C° 0 mm 2 mps 768 mmHg 70%
    07:00 +13°C° 0 mm 2 mps 769 mmHg 67%
    08:00 +13°C° 0 mm 3 mps 769 mmHg 64%
    09:00 +16°C° 0 mm 3 mps 769 mmHg 57%
    10:00 +17°C° 0 mm 3 mps 769 mmHg 51%
    11:00 +18°C° 0 mm 3 mps 769 mmHg 44%
    12:00 +19°C° 0 mm 4 mps 769 mmHg 42%
    13:00 +20°C° 0 mm 4 mps 769 mmHg 39%
    14:00 +21°C° 0 mm 4 mps 768 mmHg 37%
    15:00 +20°C° 0 mm 5 mps 768 mmHg 39%
    16:00 +19°C° 0 mm 5 mps 767 mmHg 42%
    17:00 +19°C° 0 mm 6 mps 767 mmHg 44%
    18:00 +17°C° 0 mm 5 mps 767 mmHg 50%
    19:00 +15°C° 0 mm 5 mps 767 mmHg 55%
    20:00 +14°C° 0 mm 5 mps 767 mmHg 61%
    21:00 +14°C° 0 mm 5 mps 768 mmHg 65%
    22:00 +14°C° 0 mm 4 mps 768 mmHg 70%
    23:00 +13°C° 0 mm 4 mps 768 mmHg 75%

    27 March, Wednesday

    Time Temperature Precipitation Wind Pressure Humidity
    00:00 +13°C° 0 mm 4 mps 768 mmHg 77%
    01:00 +13°C° 0 mm 4 mps 767 mmHg 80%
    02:00 +13°C° 0 mm 4 mps 767 mmHg 82%
    03:00 +13°C° 0 mm 4 mps 767 mmHg 79%
    04:00 +13°C° 0 mm 4 mps 767 mmHg 76%
    05:00 +12°C° 0 mm 5 mps 766 mmHg 73%
    06:00 +13°C° 0 mm 5 mps 766 mmHg 68%
    07:00 +13°C° 0 mm 6 mps 766 mmHg 63%
    08:00 +14°C° 0 mm 6 mps 767 mmHg 58%
    09:00 +16°C° 0 mm 6 mps 766 mmHg 52%
    10:00 +19°C° 0 mm 6 mps 766 mmHg 45%
    11:00 +21°C° 0 mm 7 mps 766 mmHg 39%
    12:00 +22°C° 0 mm 6 mps 766 mmHg 36%
    13:00 +23°C° 0 mm 6 mps 765 mmHg 33%
    14:00 +24°C° 0 mm 6 mps 765 mmHg 30%
    15:00 +23°C° 0 mm 6 mps 764 mmHg 30%
    16:00 +23°C° 0 mm 6 mps 764 mmHg 31%
    17:00 +23°C° 0 mm 6 mps 763 mmHg 31%
    18:00 +21°C° 0 mm 6 mps 763 mmHg 37%
    19:00 +20°C° 0 mm 6 mps 763 mmHg 43%
    20:00 +17°C° 0 mm 7 mps 763 mmHg 49%
    21:00 +17°C° 0 mm 6 mps 763 mmHg 52%
    22:00 +17°C° 0 mm 6 mps 763 mmHg 54%
    23:00 +17°C° 0 mm 6 mps 763 mmHg 56%

    28 March, Thursday

    Time Temperature Precipitation Wind Pressure Humidity
    00:00 +17°C° 0 mm 6 mps 762 mmHg 55%
    01:00 +17°C° 0 mm 6 mps 762 mmHg 55%
    02:00 +17°C° 0 mm 7 mps 762 mmHg 54%
    03:00 +17°C° 0 mm 7 mps 762 mmHg 57%
    04:00 +17°C° 0 mm 7 mps 762 mmHg 59%
    05:00 +16°C° 0 mm 7 mps 761 mmHg 62%
    06:00 +17°C° 0 mm 7 mps 761 mmHg 60%
    07:00 +17°C° 0 mm 8 mps 761 mmHg 59%
    08:00 +18°C° 0 mm 8 mps 761 mmHg 58%
    09:00 +21°C° 0 mm 8 mps 761 mmHg 52%
    10:00 +23°C° 0 mm 9 mps 761 mmHg 45%
    11:00 +26°C° 0 mm 9 mps 761 mmHg 39%
    12:00 +27°C° 0 mm 8 mps 760 mmHg 36%
    13:00 +28°C° 0 mm 8 mps 760 mmHg 34%
    14:00 +29°C° 0 mm 8 mps 759 mmHg 32%
    15:00 +29°C° 0 mm 7 mps 759 mmHg 32%
    16:00 +29°C° 0 mm 6 mps 758 mmHg 33%
    17:00 +29°C° 0 mm 6 mps 758 mmHg 33%
    18:00 +28°C° 0 mm 5 mps 758 mmHg 36%
    19:00 +27°C° 0 mm 4 mps 758 mmHg 39%
    20:00 +25°C° 0 mm 4 mps 758 mmHg 43%
    21:00 +25°C° 0 mm 4 mps 758 mmHg 44%
    22:00 +25°C° 0 mm 5 mps 757 mmHg 45%
    23:00 +25°C° 0 mm 5 mps 757 mmHg 46%

    29 March, Friday

    Time Temperature Precipitation Wind Pressure Humidity
    00:00 +23°C° 0 mm 5 mps 757 mmHg 48%
    01:00 +23°C° 0 mm 6 mps 757 mmHg 49%
    02:00 +23°C° 0 mm 6 mps 756 mmHg 50%
    03:00 +22°C° 0 mm 6 mps 756 mmHg 51%
    04:00 +22°C° 0 mm 6 mps 756 mmHg 52%
    05:00 +21°C° 0 mm 5 mps 756 mmHg 53%
    06:00 +22°C° 0 mm 6 mps 756 mmHg 52%
    07:00 +22°C° 0 mm 7 mps 756 mmHg 51%
    08:00 +23°C° 0 mm 7 mps 756 mmHg 50%
    09:00 +26°C° 0 mm 7 mps 755 mmHg 44%
    10:00 +28°C° 0 mm 7 mps 755 mmHg 38%
    11:00 +32°C° 0 mm 7 mps 755 mmHg 33%
    12:00 +33°C° 0 mm 7 mps 754 mmHg 29%
    13:00 +34°C° 0 mm 8 mps 753 mmHg 25%
    14:00 +37°C° 0 mm 8 mps 752 mmHg 21%
    15:00 +35°C° 0 mm 7 mps 752 mmHg 21%
    16:00 +35°C° 0 mm 6 mps 751 mmHg 21%
    17:00 +35°C° 0 mm 6 mps 751 mmHg 22%
    18:00 +33°C° 0 mm 5 mps 751 mmHg 24%
    19:00 +30°C° 0 mm 5 mps 751 mmHg 27%
    20:00 +29°C° 0 mm 4 mps 751 mmHg 29%
    21:00 +28°C° 0 mm 5 mps 751 mmHg 31%
    22:00 +28°C° 0 mm 6 mps 751 mmHg 34%
    23:00 +28°C° 0 mm 7 mps 751 mmHg 36%
    Show more